Regional Weather Roundup
Issued by NWS

Home | Current Version | Previous Version | Graphics & Text | Print | Product List | Glossary On
Versions: 1 2 3 4 5 6 7 8 9 10 11 12 13 14 15 16 17 18 19 20 21 22 23 24 25 26 27 28 29 30 31 32 33 34 35 36 37 38 39 40 41 42 43 44 45 46 47 48 49 50
000
ASUS43 KBIS 241931
RWRND
NORTH DAKOTA REGIONAL WEATHER ROUNDUP
NATIONAL WEATHER SERVICE EASTERN NORTH DAKOTA/GRAND FORKS ND
200 PM CDT WED MAY 24 2017

  NOTE: "FAIR" INDICATES FEW OR NO CLOUDS BELOW 12,000 FEET WITH NO
  SIGNIFICANT WEATHER AND/OR OBSTRUCTIONS TO VISIBILITY.

NDZ001>003-009>011-017-242000-
...NORTHWEST NORTH DAKOTA...

CITY           SKY/WX    TMP DP  RH WIND       PRES   REMARKS
WILLISTON      FAIR      72  37  28 S22G35    29.37F
MINOT          FAIR      70  35  27 SE21G36   29.50F
MINOT AFB      FAIR      68  37  31 S24G40    29.49F
$$

NDZ018>021-031>035-040>046-242000-
...SOUTHWEST NORTH DAKOTA...

CITY           SKY/WX    TMP DP  RH WIND       PRES   REMARKS
BISMARCK       FAIR      67  40  37 SE23G29   29.59F
DICKINSON      FAIR      68  32  26 S31G41    29.45F
GARRISON         N/A     67  38  34 S20G29    29.52F
HETTINGER      FAIR      69  36  29 S24G35    29.52F
$$

NDZ004>008-012>016-024-026-027-054-242000-
...NORTHEAST NORTH DAKOTA...

CITY           SKY/WX    TMP DP  RH WIND       PRES   REMARKS
GRAND FORKS    FAIR      69  41  36 SE22G32   29.68F
GRAND FORKS AF FAIR      66  41  40 S18G26    29.68F
DEVILS LAKE    FAIR      62  43  49 SE23G31   29.65F
$$

NDZ022-023-025-028>030-036>039-047>053-242000-
...SOUTHEAST NORTH DAKOTA...

CITY           SKY/WX    TMP DP  RH WIND       PRES   REMARKS
JAMESTOWN      CLOUDY    61  43  51 S15G25    29.66F
FARGO          PTSUNNY   64  42  44 S15       29.71F
WAHPETON       CLOUDY    61  41  48 S12       29.73F
$$




USA.gov is the U.S. government's official web portal to all federal, state and local government web resources and services.